Hornbeck, LA

1:00 AM CST on February 14, 2016 (GMT -0600)
Fort Polk

Weather History for KAQV - May, 2013

Change the Weather History Date:

Thursday, May 23, 2013

  Actual Average (KPOE) Record (KPOE)
Temperature  
Mean Temperature 79 °F -  
Max Temperature 90 °F 84 °F 93 °F (2005)
Min Temperature 68 °F 64 °F 51 °F (2001)
Cooling Degree Days 14    
Growing Degree Days 29 (Base 50)    
Moisture  
Dew Point 70 °F    
Average Humidity 83    
Maximum Humidity 100    
Minimum Humidity 52    
Precipitation  
Precipitation 0.01 in - - ()
Sea Level Pressure  
Sea Level Pressure 29.99 in    
Wind  
Wind Speed 2 mph (South)    
Max Wind Speed 9 mph    
Max Gust Speed -    
Visibility 7 miles    
Events Fog , Thunderstorm    
Averages and records for this station are not official NWS values.
T = Trace of Precipitation, MM = Missing Value Source: NWS Daily Summary

Daily Weather History Graph

Daily Weather History Graph

Search for Another Location

Airport or City:

Trip Planner

Search our weather history database for the weather conditions in past years. The results will help you decide how hot, cold, wet, or windy it might be!

Date:

Astronomy

May. 23, 2013 Rise Set
Actual Time 6:12 AM CDT 8:07 PM CDT
Civil Twilight 5:45 AM CDT 8:35 PM CDT
Nautical Twilight 5:12 AM CDT 9:07 PM CDT
Astronomical Twilight 4:37 AM CDT 9:42 PM CDT
Moon 6:45 PM CDT (5/23) 4:51 AM CDT (5/23)
Length of Visible Light 14h 49m
Length of Day
13h 55m
Waxing Gibbous, 97% of the Moon is Illuminated
May 23
Waxing Gibbous
May 24
Full
May 31
Last Quarter
Jun 8
New
Jun 16
First Quarter

Hourly Weather History & Observations

Time (CDT) Temp. Heat Index Dew Point Humidity Pressure Visibility Wind Dir Wind Speed Gust Speed Precip Events Conditions
12:53 AM 69.8 °F - 69.8 °F 100% 29.95 in 2.0 mi Calm Calm - N/A   Scattered Clouds
12:56 AM 70.0 °F - 69.1 °F 97% 29.94 in 2.0 mi Calm Calm - N/A   Scattered Clouds
1:03 AM 69.8 °F - 69.8 °F 100% 29.95 in 2.5 mi Calm Calm - N/A   Mostly Cloudy
1:25 AM 69.8 °F - 69.8 °F 100% 29.95 in 4.0 mi Calm Calm - N/A   Mostly Cloudy
1:39 AM 71.6 °F - 69.8 °F 94% 29.95 in 3.0 mi Calm Calm - N/A   Scattered Clouds
1:56 AM 70.0 °F - 69.1 °F 97% 29.94 in 4.0 mi Calm Calm - N/A   Clear
2:56 AM 69.1 °F - 68.0 °F 96% 29.94 in 3.0 mi Calm Calm - N/A   Clear
3:27 AM 69.8 °F - 68.0 °F 94% 29.94 in 2.5 mi Calm Calm - N/A   Partly Cloudy
3:42 AM 68.0 °F - 66.2 °F 94% 29.94 in 4.0 mi Calm Calm - N/A   Scattered Clouds
3:53 AM 68.0 °F - 66.2 °F 94% 29.94 in 5.0 mi Calm Calm - N/A   Mostly Cloudy
3:56 AM 68.0 °F - 66.9 °F 96% 29.93 in 6.0 mi Calm Calm - N/A   Mostly Cloudy
4:02 AM 68.0 °F - 66.2 °F 94% 29.94 in 1.5 mi Calm Calm - N/A   Mostly Cloudy
4:05 AM 68.0 °F - 66.2 °F 94% 29.94 in 0.8 mi Calm Calm - N/A   Mist
4:53 AM 68.0 °F - 66.2 °F 94% 29.95 in 1.2 mi Calm Calm - 0.01 in   Overcast
4:56 AM 68.0 °F - 66.9 °F 96% 29.94 in 1.5 mi Calm Calm - 0.01 in   Overcast
5:29 AM 69.8 °F - 69.8 °F 100% 29.96 in 0.5 mi Calm Calm - N/A Fog Fog
5:56 AM 70.0 °F - 70.0 °F 100% 29.96 in 0.2 mi Calm Calm - N/A Fog Fog
6:56 AM 71.1 °F - 71.1 °F 100% 29.97 in 0.2 mi Calm Calm - N/A Fog Fog
7:56 AM 72.0 °F - 72.0 °F 100% 29.99 in 1.0 mi South 4.6 mph - N/A   Overcast
8:14 AM 71.6 °F - 71.6 °F 100% 30.00 in 3.0 mi Calm Calm - N/A   Overcast
8:56 AM 73.0 °F - 73.0 °F 100% 30.00 in 9.0 mi South 5.8 mph - N/A   Overcast
9:17 AM 73.4 °F - 71.6 °F 94% 30.02 in 10.0 mi SSE 3.5 mph - N/A   Overcast
9:27 AM 75.2 °F - 73.4 °F 94% 30.02 in 10.0 mi Variable 4.6 mph - N/A   Overcast
9:56 AM 77.0 °F - 73.0 °F 88% 30.01 in 10.0 mi Variable 4.6 mph - N/A   Overcast
10:17 AM 78.8 °F - 71.6 °F 78% 30.02 in 10.0 mi Calm Calm - N/A   Scattered Clouds
10:26 AM 80.6 °F 84.6 °F 71.6 °F 74% 30.02 in 10.0 mi Variable 4.6 mph - N/A   Mostly Cloudy
10:56 AM 80.1 °F 83.6 °F 71.1 °F 74% 30.01 in 10.0 mi Variable 4.6 mph - N/A   Mostly Cloudy
11:19 AM 84.2 °F 89.6 °F 71.6 °F 66% 30.02 in 10.0 mi SSE 6.9 mph - N/A   Scattered Clouds
11:29 AM 80.6 °F 84.6 °F 71.6 °F 74% 30.03 in 10.0 mi South 8.1 mph - N/A   Mostly Cloudy
11:47 AM 84.2 °F 89.6 °F 71.6 °F 66% 30.04 in 10.0 mi Variable 5.8 mph - N/A   Mostly Cloudy
11:54 AM 82.4 °F 87.2 °F 71.6 °F 70% 30.04 in 10.0 mi Variable 5.8 mph - N/A   Mostly Cloudy
11:56 AM 82.0 °F 86.3 °F 71.1 °F 69% 30.04 in 10.0 mi Variable 4.6 mph - N/A   Mostly Cloudy
12:56 PM 84.0 °F 87.8 °F 69.1 °F 61% 30.04 in 10.0 mi Variable 4.6 mph - N/A   Mostly Cloudy
1:56 PM 86.0 °F 90.7 °F 70.0 °F 59% 30.02 in 10.0 mi Calm Calm - N/A   Mostly Cloudy
2:56 PM 88.0 °F 93.8 °F 71.1 °F 57% 30.01 in 10.0 mi NNW 5.8 mph - N/A   Scattered Clouds
3:56 PM 90.0 °F 95.4 °F 70.0 °F 52% 29.98 in 10.0 mi North 4.6 mph - N/A   Clear
4:56 PM 86.0 °F 91.5 °F 71.1 °F 61% 29.97 in 10.0 mi Calm Calm - N/A   Partly Cloudy
5:10 PM 84.2 °F 89.6 °F 71.6 °F 66% 29.97 in 10.0 mi Calm Calm - N/A Thunderstorm Thunderstorm
5:36 PM 84.2 °F 90.9 °F 73.4 °F 70% 29.98 in 10.0 mi Calm Calm - N/A   Mostly Cloudy
5:51 PM 82.4 °F 88.2 °F 73.4 °F 74% 29.98 in 10.0 mi South 9.2 mph - N/A Thunderstorm Thunderstorm
5:56 PM 82.0 °F 86.7 °F 72.0 °F 71% 29.97 in 10.0 mi South 8.1 mph - N/A Thunderstorm Thunderstorm
6:05 PM 82.4 °F 87.2 °F 71.6 °F 70% 29.98 in 10.0 mi South 5.8 mph - N/A Thunderstorm Thunderstorm
6:27 PM 82.4 °F 87.2 °F 71.6 °F 70% 29.97 in 10.0 mi South 6.9 mph - N/A   Scattered Clouds
6:56 PM 79.0 °F - 66.9 °F 66% 29.97 in 10.0 mi Variable 3.5 mph - N/A   Partly Cloudy
7:56 PM 75.9 °F - 68.0 °F 76% 29.98 in 10.0 mi Calm Calm - N/A   Partly Cloudy
8:56 PM 73.0 °F - 69.1 °F 87% 30.01 in 10.0 mi Calm Calm - N/A   Clear
9:56 PM 72.0 °F - 64.9 °F 78% 30.04 in 10.0 mi Variable 3.5 mph - N/A   Clear
10:56 PM 70.0 °F - 66.0 °F 87% 30.06 in 10.0 mi Calm Calm - N/A   Clear
11:56 PM 69.1 °F - 66.0 °F 90% 30.05 in 10.0 mi Calm Calm - N/A   Clear